Location: Garbet
(42.8837°N, 1.2115°E)
Time: 10:41:30
(UTC+00:00)

SKYMED 2 - Pass Details

Date: 13 December 2025
Orbit: 622 x 623 km, 97.9° (Epoch: 21 January)

Event Time Altitude Azimuth Distance (km) Brightness Sun altitude
Exits shadow 17:32:54 11° 30° (NNE) 1,928 5.6 -12.7°
Maximum altitude 17:36:48 39° 98° (E) 946 4.1 -13.3°
Drops below altitude 10° 17:40:50 10° 167° (SSE) 1,985 6.2 -14.0°
Sets 17:43:08 0° 175° (S) 2,886 7.2 -14.4°
